Date,TemperatureHighF,TemperatureAvgF,TemperatureLowF,DewpointHighF,DewpointAvgF,DewpointLowF,HumidityHigh,HumidityAvg,HumidityLow,PressureMaxIn,PressureMinIn,WindSpeedMaxMPH,WindSpeedAvgMPH,GustSpeedMaxMPH,PrecipitationSumIn
2013-3-1,31.8,23.1,14.5,15.5,12.4,9.6,82,64,41,30.32,30.21,14,7,20,0.00
2013-3-2,31.5,19.1,6.3,13.8,8.0,3.8,90,65,34,30.33,30.17,8,4,9,0.00
2013-3-3,34.3,21.2,8.4,9.7,2.1,-8.8,70,45,27,30.17,30.04,9,4,9,0.00
2013-3-4,28.9,22.7,16.0,19.5,9.1,-7.6,86,57,31,30.08,30.00,17,7,18,0.00
2013-3-5,27.7,23.7,20.8,24.4,21.4,18.9,95,91,84,30.23,30.01,13,6,14,0.00
2013-3-6,34.2,23.3,12.7,20.0,15.5,9.6,92,74,47,30.36,30.22,11,6,11,0.01
2013-3-7,36.1,23.0,9.3,16.4,12.6,7.3,92,67,41,30.40,30.33,10,4,11,0.00
2013-3-8,41.2,29.2,14.9,27.9,21.1,11.6,93,72,56,30.37,30.16,18,10,21,0.00
2013-3-9,36.9,33.0,29.5,36.6,31.8,24.1,99,95,75,30.16,29.75,23,10,24,0.00
2013-3-10,36.3,33.3,28.4,35.0,31.4,28.2,99,93,79,29.93,29.77,23,10,24,0.00
2013-3-11,29.7,27.1,25.0,29.4,25.9,22.3,99,95,88,29.83,29.69,17,9,19,0.00
2013-3-12,35.8,24.4,17.6,23.7,17.0,9.1,95,76,42,30.11,29.79,24,8,24,0.00
2013-3-13,37.2,23.1,10.8,13.5,6.8,0.8,78,53,21,30.32,30.11,16,7,17,0.00
2013-3-14,37.8,26.0,16.9,27.1,20.5,10.6,95,80,65,30.27,30.02,12,6,14,0.00
2013-3-15,36.9,30.1,23.7,31.2,26.2,-24.8,99,86,10,30.03,29.85,12,5,15,0.00
2013-3-16,33.6,21.3,12.2,23.5,14.2,-27.2,99,77,10,30.19,29.87,17,7,17,0.00
2013-3-17,32.5,16.4,4.3,13.2,4.4,-3.8,74,60,37,30.25,29.95,19,8,24,0.00
2013-3-18,27.7,20.1,13.5,26.5,16.8,9.0,98,87,73,29.96,29.59,27,14,30,0.00
2013-3-19,27.5,15.5,6.4,9.5,3.0,-3.8,83,59,36,30.08,29.70,27,15,29,0.00
2013-3-20,25.5,11.6,0.9,3.2,-2.1,-7.8,70,54,36,30.11,30.06,17,8,21,0.00
2013-3-21,34.0,16.2,-0.6,9.2,3.9,-4.4,84,61,33,30.10,30.02,10,4,10,0.00
2013-3-22,43.2,23.9,8.4,14.9,9.2,3.1,80,55,26,30.08,30.02,11,5,13,0.00
2013-3-23,44.8,29.1,15.4,22.3,17.5,11.0,88,64,37,30.15,30.05,9,4,9,0.00
2013-3-24,35.4,28.6,23.0,30.2,21.1,17.9,83,73,59,30.11,29.94,17,7,17,0.00
2013-3-25,41.0,27.9,18.1,23.5,18.3,14.7,87,69,40,30.19,29.99,17,8,23,0.00
2013-3-26,42.6,33.0,24.6,24.4,20.2,17.5,79,61,38,30.28,30.19,11,4,11,0.00
2013-3-27,49.5,36.5,28.6,21.3,16.9,10.7,71,47,21,30.33,30.28,10,4,10,0.00
2013-3-28,47.8,35.8,23.0,21.0,15.7,12.6,74,46,25,30.35,30.28,14,4,15,0.00
2013-3-29,45.3,38.0,27.9,25.8,20.7,15.1,60,50,35,30.31,30.14,11,6,12,0.00
2013-3-30,43.3,38.7,36.0,43.1,35.2,25.4,99,88,59,30.14,29.84,23,9,24,0.01
2013-3-31,41.2,33.7,25.0,37.3,24.9,11.7,97,73,33,30.02,29.77,18,9,22,0.00